Location: Molino di Ancona
(43.6167°N, 13.3667°E)
Time: 12:46:48
(UTC+00:00)

Okean O Rocket - Pass Details

Date: 15 December 2019
Orbit: 624 x 644 km, 98.2° (Epoch: 18 January)

Event Time Altitude Azimuth Distance (km) Brightness Sun altitude
Rises 04:28:11 0° 17° (NNE) 2,936 5.1 -21.6°
Reaches altitude 10° 04:30:26 10° 22° (NNE) 2,026 4.3 -21.2°
Maximum altitude 04:34:46 55° 101° (E) 767 2.3 -20.5°
Drops below altitude 10° 04:39:05 10° 179° (S) 2,022 4.4 -19.7°
Sets 04:41:19 0° 184° (S) 2,929 5.2 -19.3°
